[[{"header":{"parameterUnit":"m.s-1","parameterCategory":1,"la1":30.2991,"la2":30.254,"lo1":-89.0895,"lo2":-89.0444,"dy":0.0017,"dx":0.0017,"nx":28,"ny":28,"refTime":"2024-02-03T09:00:00:Z","depth":0,"parameterNumber":2,"parameterNumberName":"U-component_of_WINDS"},"data":[0,0,0,0,0,0,0,0,0,0,0,0,0,0,0,0,0,0,0,0,0,0,0,0,0,0,0,0,0,0,0,0,0,0,0,0,0,0,0,0,0,0,0,0,0,0,0,0,0,0,0,0,0,0,0,0,0,0,-0.7739,-0.7738,0,-0.7677,-0.7676,-0.7676,-0.7618,-0.7617,-0.7617,-0.7616,-0.7554,-0.7553,-0.7552,0,0,0,0,0,0,0,0,0,0,0,0,0,-0.7808,-0.7807,-0.7739,-0.7738,-0.7737,-0.7677,-0.7676,-0.7676,-0.7618,-0.7617,-0.7617,-0.7616,-0.7555,-0.7554,-0.7552,0,0,0,0,0,0,0,0,0,0,0,0,0,-0.7765,-0.7806,-0.7739,-0.7701,-0.7697,-0.7677,-0.7676,-0.7675,-0.7618,-0.7617,-0.7616,-0.7615,-0.7555,-0.7554,-0.7552,-0.7565,0,0,-0.7548,-0.7547,0,0,0,0,0,0,0,0,-0.7768,-0.7763,-0.7708,-0.7704,-0.7699,-0.7654,-0.7678,-0.7638,-0.7619,-0.7648,-0.7616,-0.7615,-0.7589,-0.7584,-0.7575,-0.7562,-0.7559,-0.7548,-0.7547,-0.7546,-0.7546,0,0,0,0,0,0,0,-0.7771,-0.7765,-0.7714,-0.7707,-0.7702,-0.7688,-0.7681,-0.767,-0.7625,-0.7646,-0.7641,-0.7635,-0.7586,-0.7577,-0.7573,-0.7558,-0.7548,-0.7546,-0.7546,-0.7545,-0.7552,-0.7553,0,0,0,0,0,0,-0.7779,-0.7768,-0.7716,-0.7712,-0.7731,-0.7688,-0.7679,-0.767,-0.7625,-0.7617,-0.7636,-0.7632,-0.758,-0.7575,-0.7571,-0.7583,-0.7546,-0.7545,-0.7544,-0.7551,-0.7552,-0.7554,0,0,0,0,0,0,-0.7781,-0.7775,-0.7719,-0.7739,-0.7731,-0.7687,-0.7677,-0.7669,-0.766,-0.7618,-0.761,-0.7634,-0.7579,-0.7573,-0.7567,-0.758,-0.7544,-0.7543,-0.755,-0.7552,-0.7553,-0.7606,0,0,0,0,0,0,-0.7783,-0.7776,-0.778,-0.7739,-0.773,-0.7715,-0.7678,-0.7669,-0.7657,-0.7652,-0.7614,-0.7607,-0.7577,-0.7569,-0.7565,-0.7577,-0.7542,-0.7549,-0.7551,-0.7553,-0.7603,-0.761,-0.7615,0,0,0,0,0,-0.7786,-0.7798,-0.7781,-0.7775,-0.7734,-0.7716,-0.7711,-0.7676,-0.7658,-0.7662,-0.7635,-0.7608,-0.7579,-0.7569,-0.7564,-0.7576,-0.7548,-0.755,-0.7552,-0.7601,-0.7608,-0.7615,0,0,0,0,0,0,-0.7842,-0.7792,-0.7772,-0.7772,-0.7749,-0.7707,-0.7711,-0.7685,-0.7667,-0.7663,-0.7621,-0.7613,-0.7612,-0.7593,-0.7583,-0.7585,-0.7559,-0.7561,-0.7598,-0.7605,-0.7611,-0.7615,-0.754,0,0,0,0,0,-0.7854,-0.7844,-0.7801,-0.7804,-0.7794,-0.7754,-0.7745,-0.772,-0.7695,-0.7685,-0.7658,-0.7635,-0.762,-0.7611,-0.7596,-0.76,-0.7591,-0.7606,-0.7612,-0.7617,-0.7619,-0.7619,-0.7625,-0.7562,-0.7561,-0.7561,0,0,-0.788,-0.7851,-0.7847,-0.7815,-0.7794,-0.7784,-0.7747,-0.7738,-0.773,-0.7684,-0.7676,-0.7655,-0.7627,-0.7626,-0.7624,-0.761,-0.7634,-0.762,-0.7624,-0.7623,-0.7623,-0.7629,-0.7634,-0.7563,-0.7563,-0.7563,0,0,-0.7921,-0.7898,-0.7899,-0.7878,-0.7847,-0.7821,-0.7821,-0.7783,-0.7767,-0.7758,-0.7723,-0.7714,-0.769,-0.767,-0.7658,-0.7691,-0.7666,-0.7687,-0.7718,-0.772,-0.7725,-0.7729,-0.7741,-0.7746,-0.7689,-0.769,-0.769,0,-0.7957,-0.794,-0.7902,-0.7895,-0.7882,-0.7839,-0.784,-0.7822,-0.7788,-0.778,-0.7764,-0.7733,-0.7711,-0.7705,-0.7713,-0.7704,-0.7703,-0.7692,-0.7727,-0.7731,-0.7734,-0.7746,-0.775,-0.7692,-0.7692,-0.7692,-0.7692,0,-0.7986,-0.7975,-0.7979,-0.7946,-0.7933,-0.793,-0.7892,-0.7884,-0.786,-0.7836,-0.7828,-0.7799,-0.7777,-0.7773,-0.775,-0.7764,-0.7757,-0.7735,-0.7708,-0.7744,-0.7754,-0.7758,-0.7697,-0.7696,-0.7695,-0.7694,0,0,-0.8061,-0.8007,-0.8009,-0.7994,-0.7956,-0.7947,-0.7942,-0.7919,-0.7913,-0.7891,-0.7886,-0.7866,-0.7846,-0.7831,-0.7806,-0.7807,-0.7835,-0.7785,-0.7783,-0.7795,-0.7849,-0.7866,-0.7871,-0.7818,-0.7819,-0.7819,-0.7851,0,-0.8096,-0.8084,-0.805,-0.8048,-0.8038,-0.7997,-0.7992,-0.7969,-0.7946,-0.7934,-0.7908,-0.7895,-0.7869,-0.786,-0.7859,-0.7832,-0.7846,-0.7829,-0.7813,-0.7813,-0.7822,-0.7876,-0.7894,-0.7926,-0.7855,-0.7856,-0.7856,0,-0.8136,-0.8116,-0.8113,-0.8075,-0.807,-0.8066,-0.8043,-0.8032,-0.8004,-0.7987,-0.7971,-0.7942,-0.7935,-0.791,-0.7899,-0.7889,-0.788,-0.7866,-0.7867,-0.7864,-0.7837,-0.7876,-0.7935,-0.7941,-0.7862,-0.7861,-0.7861,0,-0.8192,-0.8164,-0.8158,-0.8146,-0.8102,-0.8101,-0.8082,-0.8054,-0.8043,-0.8022,-0.8014,-0.7994,-0.7983,-0.7968,-0.7934,-0.7919,-0.7928,-0.79,-0.7914,-0.7915,-0.7918,-0.7918,-0.7977,-0.7912,-0.7912,-0.7912,-0.7912,0,-0.8235,-0.8235,-0.8183,-0.818,-0.8178,-0.8139,-0.8139,-0.8117,-0.8092,-0.8084,-0.8047,-0.804,-0.7996,-0.7985,-0.7959,-0.7954,-0.7949,-0.7936,-0.7929,-0.7939,-0.7941,-0.7933,-0.793,-0.7913,-0.7913,-0.7912,-0.7912,0,-0.8297,-0.8262,-0.8253,-0.8212,-0.8202,-0.8203,-0.8167,-0.8163,-0.8137,-0.8128,-0.8123,-0.8083,-0.8068,-0.8033,-0.8008,-0.799,-0.7992,-0.798,-0.8002,-0.7997,-0.8013,-0.8012,-0.807,-0.8076,-0.8007,-0.8007,-0.8008,0,-0.8327,-0.8326,-0.8284,-0.8276,-0.8259,-0.8246,-0.8234,-0.8195,-0.8184,-0.8153,-0.8152,-0.8133,-0.8117,-0.8094,-0.8063,-0.8044,-0.803,-0.8052,-0.8027,-0.8038,-0.8031,-0.8032,-0.8031,-0.8058,-0.8058,-0.8059,-0.806,0,-0.8384,-0.8366,-0.835,-0.8328,-0.8315,-0.8296,-0.8275,-0.827,-0.8226,-0.8216,-0.8199,-0.8186,-0.816,-0.8142,-0.8118,-0.81,-0.8073,-0.8068,-0.807,-0.8081,-0.8093,-0.8087,-0.8017,-0.8067,-0.8066,-0.8065,-0.8065,-0.8065,-0.8431,-0.8428,-0.8398,-0.8381,-0.8361,-0.8342,-0.8336,-0.8309,-0.8294,-0.827,-0.8248,-0.8233,-0.8206,-0.8171,-0.8154,-0.8142,-0.8129,-0.8132,-0.8133,-0.8134,-0.8139,-0.8095,-0.8138,-0.8137,-0.8137,-0.8137,-0.8137,0,-0.8486,-0.8464,-0.8449,-0.8421,-0.8408,-0.8382,-0.8358,-0.8349,-0.8336,-0.8312,-0.8296,-0.8277,-0.8259,-0.8227,-0.8207,-0.8204,-0.8191,-0.82,-0.82,-0.8196,-0.8152,-0.8152,-0.821,-0.821,-0.821,-0.821,-0.821,-0.821,-0.8513,-0.8507,-0.8486,-0.8469,-0.8448,-0.8433,-0.8421,-0.8403,-0.8384,-0.8364,-0.8349,-0.8328,-0.83,-0.8278,-0.8261,-0.8251,-0.8246,-0.8259,-0.8246,-0.8206,-0.8199,-0.8192,-0.8192,-0.8258,-0.8258,-0.8291,-0.8291,-0.8291]},{"header":{"parameterUnit":"m.s-1","parameterCategory":1,"la1":30.2991,"la2":30.254,"lo1":-89.0895,"lo2":-89.0444,"dy":0.0017,"dx":0.0017,"nx":28,"ny":28,"refTime":"2024-02-03T09:00:00:Z","depth":0,"parameterNumber":3,"parameterNumberName":"V-component_of_WINDS"},"data":[0,0,0,0,0,0,0,0,0,0,0,0,0,0,0,0,0,0,0,0,0,0,0,0,0,0,0,0,0,0,0,0,0,0,0,0,0,0,0,0,0,0,0,0,0,0,0,0,0,0,0,0,0,0,0,0,0,0,1.4459,1.4459,0,1.4534,1.4535,1.4535,1.4555,1.4555,1.4554,1.4554,1.4632,1.4634,1.4637,0,0,0,0,0,0,0,0,0,0,0,0,0,1.4333,1.4336,1.4459,1.446,1.446,1.4534,1.4535,1.4536,1.4555,1.4555,1.4554,1.4553,1.4631,1.4634,1.4637,0,0,0,0,0,0,0,0,0,0,0,0,0,1.4396,1.4336,1.4458,1.4479,1.4481,1.4533,1.4535,1.4536,1.4555,1.4554,1.4554,1.4553,1.463,1.4634,1.4637,1.4675,0,0,1.4649,1.4651,0,0,0,0,0,0,0,0,1.4393,1.4401,1.4475,1.4478,1.4481,1.4534,1.4519,1.4583,1.4555,1.4527,1.4554,1.4553,1.46,1.4606,1.4622,1.4678,1.4682,1.4649,1.4652,1.4653,1.4654,0,0,0,0,0,0,0,1.4388,1.4398,1.4488,1.4476,1.4479,1.4485,1.4493,1.4531,1.4567,1.453,1.4531,1.454,1.4601,1.4618,1.4624,1.4683,1.4649,1.4653,1.4655,1.4656,1.4774,1.4775,0,0,0,0,0,0,1.438,1.4394,1.4486,1.4491,1.4434,1.4488,1.4497,1.4518,1.4566,1.4573,1.454,1.454,1.4612,1.4619,1.4627,1.4674,1.4653,1.4657,1.4659,1.4773,1.4774,1.4775,0,0,0,0,0,0,1.4377,1.4388,1.4483,1.4443,1.4455,1.4491,1.4514,1.452,1.4536,1.4574,1.4581,1.4551,1.4612,1.4621,1.4663,1.4677,1.4658,1.4662,1.4772,1.4773,1.4774,1.4767,0,0,0,0,0,0,1.4374,1.4387,1.4401,1.4443,1.4457,1.4517,1.4515,1.4522,1.4543,1.4544,1.4586,1.4592,1.4612,1.4657,1.4666,1.4681,1.4665,1.4771,1.4773,1.4774,1.4767,1.4768,1.477,0,0,0,0,0,1.4369,1.4397,1.4402,1.4413,1.4476,1.4518,1.4526,1.4548,1.4544,1.4559,1.4583,1.4591,1.4673,1.4661,1.4672,1.4688,1.477,1.4772,1.4774,1.4766,1.4768,1.477,0,0,0,0,0,0,1.4356,1.4402,1.4409,1.445,1.448,1.4521,1.454,1.4549,1.4581,1.4581,1.4607,1.4616,1.4656,1.4676,1.4661,1.4727,1.4722,1.4726,1.4712,1.4714,1.4716,1.471,1.4668,0,0,0,0,0,1.4358,1.4388,1.4427,1.446,1.4475,1.4505,1.4524,1.4538,1.457,1.4583,1.461,1.4641,1.4674,1.4695,1.4728,1.477,1.4779,1.4786,1.4788,1.4789,1.4792,1.4816,1.482,1.4781,1.4781,1.4781,0,0,1.4363,1.4391,1.4409,1.4458,1.4483,1.4514,1.4515,1.4548,1.4571,1.4588,1.4628,1.465,1.4686,1.4728,1.4747,1.4746,1.4805,1.4792,1.4792,1.4795,1.4818,1.4822,1.4825,1.4783,1.4782,1.4782,0,0,1.4386,1.4411,1.4441,1.4466,1.4503,1.4523,1.453,1.457,1.4584,1.4625,1.4639,1.4667,1.4723,1.4748,1.4769,1.4802,1.481,1.4812,1.482,1.4843,1.4846,1.4849,1.4861,1.4864,1.4815,1.4815,1.4815,0,1.4387,1.4434,1.4456,1.4488,1.4509,1.4525,1.4556,1.4579,1.4625,1.464,1.4637,1.4708,1.4734,1.4781,1.4789,1.4805,1.4814,1.4807,1.4844,1.4847,1.485,1.4861,1.4866,1.4815,1.4815,1.4815,1.4815,0,1.4433,1.4465,1.4486,1.4529,1.4552,1.4584,1.4611,1.4632,1.4644,1.4665,1.4706,1.4737,1.4776,1.4789,1.4801,1.4838,1.4836,1.4838,1.4834,1.4853,1.4864,1.4869,1.4815,1.4815,1.4815,1.4815,0,0,1.4452,1.4506,1.4513,1.4533,1.4575,1.46,1.4633,1.467,1.4688,1.4719,1.4747,1.4794,1.4796,1.4819,1.4834,1.4854,1.4879,1.4854,1.4855,1.4858,1.4922,1.492,1.4924,1.4885,1.4885,1.4886,1.4918,0,1.4481,1.4538,1.4559,1.4606,1.4636,1.4652,1.468,1.4709,1.4728,1.4757,1.4779,1.4812,1.4813,1.4827,1.4847,1.4871,1.4892,1.4869,1.4911,1.4912,1.4901,1.493,1.4929,1.4957,1.4923,1.4924,1.4924,0,1.4522,1.4553,1.4603,1.4641,1.4655,1.468,1.4716,1.4743,1.4776,1.4789,1.4814,1.4828,1.4863,1.4856,1.4904,1.4888,1.4907,1.4921,1.4923,1.4928,1.4919,1.4936,1.4967,1.4971,1.4932,1.4931,1.4931,0,1.453,1.4585,1.4622,1.4638,1.4684,1.4701,1.472,1.4753,1.4774,1.4806,1.482,1.4855,1.4875,1.4902,1.4925,1.4918,1.4971,1.4966,1.4983,1.4983,1.4994,1.4993,1.5028,1.5005,1.5005,1.5005,1.5005,0,1.4561,1.4591,1.4626,1.4649,1.4683,1.4707,1.474,1.4761,1.479,1.4817,1.4833,1.4858,1.4887,1.4917,1.4935,1.4972,1.4981,1.4992,1.4997,1.4991,1.4989,1.5003,1.5002,1.5006,1.5006,1.5006,1.5006,0,1.4576,1.46,1.4642,1.4681,1.4692,1.4715,1.4749,1.4772,1.4792,1.4827,1.4836,1.4868,1.4904,1.4929,1.4975,1.4987,1.5027,1.5032,1.5016,1.5018,1.5033,1.5031,1.5079,1.5087,1.5058,1.5058,1.5059,0,1.4594,1.4617,1.4659,1.4678,1.4697,1.4728,1.475,1.4774,1.4796,1.4835,1.4853,1.489,1.492,1.4976,1.5003,1.5038,1.5044,1.5058,1.5049,1.5042,1.5044,1.5042,1.5045,1.5059,1.506,1.506,1.506,0,1.4623,1.4633,1.4664,1.4698,1.4723,1.4752,1.4781,1.4796,1.4825,1.4849,1.4885,1.4908,1.4955,1.499,1.5028,1.5049,1.5059,1.5062,1.5068,1.5062,1.5052,1.5058,1.5019,1.5061,1.5061,1.5061,1.5061,1.5061,1.464,1.4661,1.4694,1.4727,1.4751,1.4777,1.4801,1.4824,1.4854,1.4893,1.4906,1.4943,1.4976,1.5027,1.5048,1.5078,1.5078,1.5086,1.5088,1.509,1.5089,1.5047,1.5085,1.5085,1.5085,1.5085,1.5085,0,1.467,1.4691,1.4721,1.4761,1.4787,1.4794,1.4826,1.4847,1.488,1.4909,1.4938,1.498,1.5014,1.5045,1.5081,1.5099,1.5104,1.5107,1.5106,1.5111,1.5088,1.5079,1.5102,1.5102,1.5102,1.5102,1.5102,1.5102,1.4688,1.4725,1.474,1.4788,1.481,1.4846,1.4864,1.4888,1.4912,1.4957,1.4986,1.5005,1.5035,1.5073,1.5105,1.5113,1.5126,1.5128,1.5137,1.5115,1.5113,1.5111,1.5103,1.513,1.513,1.5158,1.5158,1.5158]}]]